FENGYUN 1C DEB

Satellite information

Favourite Embed

Satellite Type and Status

DEBRISIN ORBIT

Key statistics

Satellite FENGYUN 1C DEB at a glance.

Uptime

9618

Days in orbit

Revolutions

≈ 14.2

Per day

Orbit

SSO

Sun Synchronous Orbit

Inclination

99.0

Latest

Satellite identification and parameters

Extended collection of information and parameters for FENGYUN 1C DEB.

Object identification

Identified? True

Debris? True

Object name: FENGYUN 1C DEB

International designator: 1999-025BLF

Object number (NORAD): 31225

Object ID (CCSDS): 31225

Country: PEOPLES REPUBLIC OF CHINA (PRC)

Current information (Y/N): Y

RCS size: SMALL

Orbital parameters

Period: 101.623 minutes

Inclination: 98.9963 deg

SMA: 7213.642 km

Apoapsis: 899.822 km

Periapsis: 771.193 km

RAAN: 319.1953 deg

Eccentricy: 0.0089157

Argument of periapsis: 273.4715 deg

Mean anomaly: 115.2754 deg

Mean motion: 14.17003299 rev/day

Mean motion (dot): 0.0000418 rev/day2

B* drag term: 0.002021911 1/REarth

Two-line elements (TLE)

Creation date: Sept. 4, 2025, 10:13 a.m.

Reference frame: TEME

Reference center: EARTH

Epoch: Sept. 4, 2025, 3:28 a.m. UTC

TLE line 0: 0 FENGYUN 1C DEB

TLE line 1: 1 31225U 99025BLF 25247.14512100 .00004180 00000-0 20219-2 0 9991

TLE line 2: 2 31225 98.9963 319.1953 0089157 273.4715 115.2754 14.17003299944119

Live tracking on map

Real-time ground track for satellite FENGYUN 1C DEB.

In-orbit conjunctions

A list of the most updated potential collisions computed for object FENGYUN 1C DEB.

Target Orbit TCA Probability of collision Miss distance Type
CZ-4B R/B LEO 2025-08-26 17:21:50 0.0001035649 95.0 (m) ROCKET BODY
COSMOS 2219 LEO 2024-07-23 20:50:03 0.0003684584 141.0 (m) PAYLOAD

Associated space launch

Chinese polar orbiting meteorological satellite

FENGYUN 1C DEB was lifted into orbit during the mission ‘Long March 4B | Feng Yun 1C’, on board a Long March 4B space rocket.

The launch took place on May 10, 1999, 1:33 a.m. from Launch Complex 7.

For more information about the launch, click the button.

Launch to space Long March 4B | Feng Yun 1C
Long March 4B | Feng Yun 1C

Agency: N/A

Status: Launch Successful

Launch date: May 10, 1999, 1:33 a.m. UTC

Rocket: Long March 4B

Launch pad: Launch Complex 7

Location: Taiyuan Satellite Launch Center, People's Republic of China

...

Latest news about this satellite

There are no fresh news available about this satellite. Check back as we update our databases every day.


Newsletter sign-up

Weekly statistics, charts and insights to help you stay on top of the space industry.